TimeEST,TemperatureF,Dew PointF,Humidity,Sea Level PressureIn,VisibilityMPH,Wind Direction,Wind SpeedMPH,Gust SpeedMPH,PrecipitationIn,Events,Conditions,WindDirDegrees,DateUTC
12:15 AM,18.3,15.6,89,30.42,5.0,Calm,Calm,-,N/A,Snow,Light Snow,0,2014-01-09 05:15:00
12:35 AM,18.1,15.6,90,30.42,5.0,SW,3.5,-,N/A,Snow,Light Snow,230,2014-01-09 05:35:00
12:55 AM,18.3,16.2,91,30.42,2.5,SW,3.5,-,N/A,Snow,Light Snow,220,2014-01-09 05:55:00
1:15 AM,18.9,16.3,90,30.43,4.0,SW,3.5,-,N/A,Snow,Light Snow,230,2014-01-09 06:15:00
1:35 AM,19.0,16.7,91,30.43,5.0,WSW,3.5,-,N/A,Snow,Light Snow,240,2014-01-09 06:35:00
1:55 AM,19.0,16.5,90,30.43,4.0,Calm,Calm,-,N/A,Snow,Light Snow,0,2014-01-09 06:55:00
2:15 AM,18.5,16.5,92,30.44,3.0,Calm,Calm,-,N/A,Snow,Light Snow,0,2014-01-09 07:15:00
2:35 AM,18.3,16.7,93,30.45,5.0,Calm,Calm,-,N/A,Snow,Light Snow,0,2014-01-09 07:35:00
2:55 AM,18.1,16.7,94,30.47,7.0,Calm,Calm,-,N/A,,Overcast,0,2014-01-09 07:55:00
3:15 AM,18.5,17.2,95,30.47,10.0,Calm,Calm,-,N/A,,Overcast,0,2014-01-09 08:15:00
3:35 AM,18.5,16.7,93,30.47,10.0,Calm,Calm,-,N/A,,Overcast,0,2014-01-09 08:35:00
3:55 AM,18.3,16.7,93,30.48,10.0,Calm,Calm,-,N/A,,Overcast,0,2014-01-09 08:55:00
4:15 AM,18.5,17.1,94,30.48,10.0,Calm,Calm,-,N/A,,Overcast,0,2014-01-09 09:15:00
4:35 AM,18.9,17.2,93,30.49,10.0,Calm,Calm,-,N/A,,Overcast,0,2014-01-09 09:35:00
4:55 AM,19.4,16.7,89,30.49,10.0,Calm,Calm,-,N/A,,Overcast,0,2014-01-09 09:55:00
5:15 AM,19.4,15.8,86,30.49,10.0,Calm,Calm,-,N/A,,Mostly Cloudy,0,2014-01-09 10:15:00
5:35 AM,16.3,13.8,90,30.50,10.0,Calm,Calm,-,N/A,,Clear,0,2014-01-09 10:35:00
5:53 AM,17.6,15.8,93,30.50,7.0,Calm,Calm,-,N/A,,Scattered Clouds,0,2014-01-09 10:53:00
6:53 AM,17.6,15.8,93,30.52,5.0,Calm,Calm,-,N/A,,Mostly Cloudy,0,2014-01-09 11:53:00
7:53 AM,17.6,14.0,86,30.54,10.0,WNW,3.5,-,N/A,,Scattered Clouds,300,2014-01-09 12:53:00
8:53 AM,17.6,14.0,86,30.57,10.0,Calm,Calm,-,N/A,,Scattered Clouds,0,2014-01-09 13:53:00
9:53 AM,23.0,15.8,74,30.58,10.0,Calm,Calm,-,N/A,,Scattered Clouds,0,2014-01-09 14:53:00
10:53 AM,23.0,14.0,68,30.59,10.0,Calm,Calm,-,N/A,,Scattered Clouds,0,2014-01-09 15:53:00
11:53 AM,28.4,14.0,55,30.53,10.0,Calm,Calm,-,N/A,,Clear,0,2014-01-09 16:53:00
12:53 PM,30.2,14.0,51,30.50,10.0,Calm,Calm,-,N/A,,Clear,0,2014-01-09 17:53:00
1:53 PM,32.0,14.0,48,30.50,10.0,Calm,Calm,-,N/A,,Partly Cloudy,0,2014-01-09 18:53:00
2:53 PM,32.0,15.8,51,30.49,10.0,Calm,Calm,-,N/A,,Scattered Clouds,0,2014-01-09 19:53:00
3:53 PM,32.0,15.8,51,30.49,10.0,SSW,5.8,-,N/A,,Mostly Cloudy,200,2014-01-09 20:53:00
4:53 PM,32.0,15.8,51,30.50,10.0,Calm,Calm,-,N/A,,Partly Cloudy,0,2014-01-09 21:53:00
6:53 PM,30.2,14.0,51,30.49,10.0,Calm,Calm,-,N/A,,Scattered Clouds,0,2014-01-09 23:53:00
7:53 PM,28.4,14.0,55,30.48,10.0,Calm,Calm,-,N/A,,Scattered Clouds,0,2014-01-10 00:53:00
8:53 PM,28.4,15.8,59,30.48,10.0,Calm,Calm,-,N/A,,Scattered Clouds,0,2014-01-10 01:53:00
9:55 PM,29.1,17.8,63,30.48,10.0,Calm,Calm,-,N/A,,Overcast,0,2014-01-10 02:55:00
10:15 PM,29.7,17.2,60,30.47,10.0,Calm,Calm,-,N/A,,Overcast,0,2014-01-10 03:15:00
10:35 PM,30.2,17.2,59,30.47,10.0,Calm,Calm,-,N/A,,Overcast,0,2014-01-10 03:35:00
10:55 PM,30.9,17.2,57,30.46,10.0,SSW,5.8,-,N/A,,Overcast,200,2014-01-10 03:55:00
11:15 PM,31.1,16.7,55,30.43,10.0,South,8.1,-,N/A,,Overcast,180,2014-01-10 04:15:00
11:35 PM,31.5,16.7,54,30.43,10.0,South,4.6,-,N/A,,Overcast,190,2014-01-10 04:35:00
11:55 PM,31.5,17.2,56,30.43,10.0,South,5.8,-,N/A,,Overcast,190,2014-01-10 04:55:00